N84AB KJAX-KCOF

Flight info

Callsign N84AB
Flight time 0h 28m
Altitude 17000
Route FOXAM T208 INDIA
Aircraft C750/M-SBDE3FGHRWXY/S

Departure

Time 2026-05-06 20:55
Airport Jacksonville International Airport (KJAX)

Arrival

Time 2026-05-06 21:23
Airport Patrick Space Force Base (KCOF)
Time Latitude Longitude Altitude Speed Heading
2026-05-06 20:22 30.48580 -81.68195 37 ft 0 kts 280°
2026-05-06 20:44 30.48576 -81.68168 37 ft 4 kts 284°
2026-05-06 20:44 30.48567 -81.68139 36 ft 4 kts 299°
2026-05-06 20:45 30.48559 -81.68125 36 ft 5 kts 333°
2026-05-06 20:49 30.48560 -81.68125 35 ft 1 kts 327°
2026-05-06 20:49 30.48558 -81.68142 36 ft 3 kts 229°
2026-05-06 20:50 30.48543 -81.68140 35 ft 6 kts 152°
2026-05-06 20:50 30.48490 -81.68130 33 ft 9 kts 191°
2026-05-06 20:50 30.48428 -81.68143 33 ft 8 kts 196°
2026-05-06 20:50 30.48396 -81.68187 33 ft 7 kts 251°
2026-05-06 20:51 30.48381 -81.68239 34 ft 7 kts 251°
2026-05-06 20:51 30.48356 -81.68321 34 ft 12 kts 250°
2026-05-06 20:51 30.48327 -81.68411 32 ft 12 kts 249°
2026-05-06 20:51 30.48284 -81.68493 32 ft 12 kts 199°
2026-05-06 20:52 30.48223 -81.68446 30 ft 12 kts 129°
2026-05-06 20:52 30.48153 -81.68352 28 ft 16 kts 132°
2026-05-06 20:52 30.48081 -81.68257 29 ft 16 kts 129°
2026-05-06 20:52 30.48024 -81.68177 27 ft 0 kts 131°
2026-05-06 20:53 30.48016 -81.68167 27 ft 5 kts 131°
2026-05-06 20:53 30.47976 -81.68136 27 ft 9 kts 168°
2026-05-06 20:53 30.47924 -81.68158 27 ft 7 kts 216°
2026-05-06 20:53 30.47877 -81.68203 28 ft 11 kts 221°
2026-05-06 20:54 30.47871 -81.68271 27 ft 10 kts 310°
2026-05-06 20:54 30.47919 -81.68337 28 ft 17 kts 310°
2026-05-06 20:54 30.48238 -81.68767 33 ft 128 kts 310°
2026-05-06 20:54 30.48932 -81.69711 243 ft 174 kts 308°
2026-05-06 20:55 30.49749 -81.70854 966 ft 188 kts 307°
2026-05-06 20:55 30.50206 -81.72255 1720 ft 196 kts 265°
2026-05-06 20:55 30.49672 -81.73699 2575 ft 202 kts 226°
2026-05-06 20:55 30.48356 -81.74307 3468 ft 216 kts 180°
2026-05-06 20:56 30.46935 -81.73678 4502 ft 224 kts 151°
2026-05-06 20:56 30.45649 -81.72670 5636 ft 223 kts 148°
2026-05-06 20:56 30.44364 -81.71666 6707 ft 223 kts 149°
2026-05-06 20:56 30.43067 -81.70661 7684 ft 226 kts 150°
2026-05-06 20:57 30.41747 -81.69618 8704 ft 232 kts 149°
2026-05-06 20:57 30.40393 -81.68543 9658 ft 242 kts 149°
2026-05-06 20:57 30.38943 -81.67400 10005 ft 273 kts 149°
2026-05-06 20:57 30.37282 -81.66046 9988 ft 312 kts 142°
2026-05-06 20:58 30.35909 -81.64095 9990 ft 303 kts 126°
2026-05-06 20:58 30.34800 -81.61977 10001 ft 323 kts 122°
2026-05-06 20:58 30.33604 -81.59610 10016 ft 358 kts 122°
2026-05-06 20:58 30.32290 -81.57006 10012 ft 389 kts 122°
2026-05-06 20:59 30.30896 -81.54246 10032 ft 400 kts 122°
2026-05-06 20:59 30.29480 -81.51447 10037 ft 404 kts 122°
2026-05-06 20:59 30.28059 -81.48633 10029 ft 406 kts 122°
2026-05-06 20:59 30.26614 -81.45815 10016 ft 406 kts 124°
2026-05-06 21:00 30.24663 -81.43497 9989 ft 400 kts 145°
2026-05-06 21:00 30.22313 -81.41770 10022 ft 401 kts 152°
2026-05-06 21:00 30.19869 -81.40223 10043 ft 402 kts 154°
2026-05-06 21:00 30.17380 -81.38717 10561 ft 404 kts 155°
2026-05-06 21:01 30.14907 -81.37237 11548 ft 390 kts 155°
2026-05-06 21:01 30.12563 -81.35824 12819 ft 375 kts 155°
2026-05-06 21:01 30.10262 -81.34430 13434 ft 383 kts 154°
2026-05-06 21:01 30.07846 -81.32979 14139 ft 389 kts 155°
2026-05-06 21:02 30.05461 -81.31550 14779 ft 394 kts 155°
2026-05-06 21:02 30.03020 -81.30081 15413 ft 399 kts 155°
2026-05-06 21:02 30.00543 -81.28583 16084 ft 404 kts 155°
2026-05-06 21:02 29.98041 -81.27065 16712 ft 411 kts 155°
2026-05-06 21:03 29.95469 -81.25508 17032 ft 427 kts 155°
2026-05-06 21:03 29.92776 -81.23882 17034 ft 449 kts 155°
2026-05-06 21:03 29.89950 -81.22181 17043 ft 467 kts 155°
2026-05-06 21:03 29.87057 -81.20444 17041 ft 472 kts 155°
2026-05-06 21:04 29.84068 -81.18890 16991 ft 472 kts 166°
2026-05-06 21:04 29.80856 -81.18251 17022 ft 467 kts 176°
2026-05-06 21:04 29.77620 -81.18026 17033 ft 466 kts 181°
2026-05-06 21:04 29.74373 -81.17853 17038 ft 469 kts 178°
2026-05-06 21:05 29.71149 -81.17282 17030 ft 471 kts 172°
2026-05-06 21:05 29.67948 -81.16424 17025 ft 473 kts 167°
2026-05-06 21:05 29.64838 -81.15164 17022 ft 475 kts 161°
2026-05-06 21:05 29.61799 -81.13661 17030 ft 476 kts 158°
2026-05-06 21:06 29.58783 -81.12072 17033 ft 477 kts 157°
2026-05-06 21:06 29.55695 -81.10801 16993 ft 471 kts 171°
2026-05-06 21:06 29.52493 -81.10403 17011 ft 467 kts 179°
2026-05-06 21:06 29.49262 -81.10505 17025 ft 464 kts 188°
2026-05-06 21:07 29.46056 -81.10935 17035 ft 464 kts 190°
2026-05-06 21:07 29.42833 -81.11315 17042 ft 465 kts 188°
2026-05-06 21:07 29.39667 -81.11562 17043 ft 454 kts 186°
2026-05-06 21:07 29.36506 -81.11823 17044 ft 456 kts 187°
2026-05-06 21:08 29.33313 -81.11762 17019 ft 462 kts 177°
2026-05-06 21:08 29.30146 -81.11098 17026 ft 466 kts 168°
2026-05-06 21:08 29.27059 -81.09925 17025 ft 468 kts 162°
2026-05-06 21:08 29.23990 -81.08692 17033 ft 467 kts 163°
2026-05-06 21:09 29.20918 -81.07476 17040 ft 468 kts 163°
2026-05-06 21:09 29.17842 -81.06241 17044 ft 468 kts 162°
2026-05-06 21:09 29.14776 -81.04996 17045 ft 468 kts 162°
2026-05-06 21:09 29.11751 -81.03778 17044 ft 467 kts 162°
2026-05-06 21:10 29.08638 -81.02538 17039 ft 467 kts 163°
2026-05-06 21:10 29.05614 -81.01329 17036 ft 467 kts 162°
2026-05-06 21:10 29.02502 -81.00078 17045 ft 467 kts 162°
2026-05-06 21:10 28.99482 -80.98866 17034 ft 467 kts 162°
2026-05-06 21:11 28.96413 -80.97637 17036 ft 467 kts 163°
2026-05-06 21:11 28.93347 -80.96413 17018 ft 466 kts 162°
2026-05-06 21:11 28.90289 -80.95190 17026 ft 466 kts 162°
2026-05-06 21:11 28.87350 -80.94008 16757 ft 429 kts 162°
2026-05-06 21:12 28.84633 -80.92919 16034 ft 403 kts 162°
2026-05-06 21:12 28.82014 -80.91882 14814 ft 395 kts 162°
2026-05-06 21:12 28.79447 -80.90871 14186 ft 378 kts 161°
2026-05-06 21:12 28.76945 -80.89875 13849 ft 388 kts 161°
2026-05-06 21:13 28.74425 -80.88868 13307 ft 382 kts 161°
2026-05-06 21:13 28.71910 -80.87874 12811 ft 381 kts 161°
2026-05-06 21:13 28.69404 -80.86885 12305 ft 378 kts 161°
2026-05-06 21:13 28.66927 -80.85896 11804 ft 376 kts 161°
2026-05-06 21:14 28.64487 -80.84915 11340 ft 365 kts 160°
2026-05-06 21:14 28.62164 -80.83986 10898 ft 343 kts 160°
2026-05-06 21:14 28.59971 -80.83112 10437 ft 327 kts 160°
2026-05-06 21:14 28.57872 -80.82273 10023 ft 313 kts 160°
2026-05-06 21:15 28.55855 -80.81466 9599 ft 302 kts 160°
2026-05-06 21:15 28.53887 -80.80680 9199 ft 299 kts 160°
2026-05-06 21:15 28.51932 -80.79900 8815 ft 296 kts 160°
2026-05-06 21:15 28.49983 -80.79126 8416 ft 298 kts 160°
2026-05-06 21:16 28.48163 -80.78107 7991 ft 290 kts 140°
2026-05-06 21:16 28.47060 -80.76254 7580 ft 282 kts 109°
2026-05-06 21:16 28.46500 -80.74135 7278 ft 279 kts 104°
2026-05-06 21:16 28.45929 -80.72025 6993 ft 281 kts 108°
2026-05-06 21:17 28.45244 -80.69971 6730 ft 281 kts 110°
2026-05-06 21:17 28.44532 -80.67905 6428 ft 280 kts 110°
2026-05-06 21:17 28.43862 -80.65835 6106 ft 280 kts 109°
2026-05-06 21:17 28.43202 -80.63759 5783 ft 279 kts 109°
2026-05-06 21:18 28.42530 -80.61689 5424 ft 281 kts 110°
2026-05-06 21:18 28.41860 -80.59645 5109 ft 269 kts 110°
2026-05-06 21:18 28.41204 -80.57697 4588 ft 263 kts 114°
2026-05-06 21:18 28.40069 -80.56162 4033 ft 248 kts 145°
2026-05-06 21:19 28.38572 -80.55418 3769 ft 224 kts 171°
2026-05-06 21:19 28.37117 -80.55419 3684 ft 198 kts 193°
2026-05-06 21:19 28.35869 -80.55887 3505 ft 179 kts 203°
2026-05-06 21:19 28.34732 -80.56313 2951 ft 167 kts 198°
2026-05-06 21:20 28.33637 -80.56698 2324 ft 162 kts 197°
2026-05-06 21:20 28.32579 -80.57129 1838 ft 157 kts 199°
2026-05-06 21:20 28.31630 -80.57614 1535 ft 146 kts 201°
2026-05-06 21:20 28.30727 -80.58027 1290 ft 136 kts 189°
2026-05-06 21:21 28.29846 -80.58323 1130 ft 128 kts 196°
2026-05-06 21:21 28.29031 -80.58680 973 ft 124 kts 194°
2026-05-06 21:21 28.28233 -80.59050 798 ft 126 kts 194°
2026-05-06 21:21 28.27383 -80.59382 618 ft 133 kts 191°
2026-05-06 21:22 28.26490 -80.59712 413 ft 136 kts 194°
2026-05-06 21:22 28.25594 -80.60086 273 ft 136 kts 194°
2026-05-06 21:22 28.24720 -80.60441 109 ft 131 kts 193°
2026-05-06 21:22 28.23906 -80.60764 15 ft 116 kts 197°
2026-05-06 21:23 28.23329 -80.61005 11 ft 58 kts 200°
2026-05-06 21:23 28.22991 -80.61143 12 ft 31 kts 200°
2026-05-06 21:23 28.22883 -80.61161 13 ft 11 kts 155°
2026-05-06 21:23 28.22857 -80.61105 13 ft 7 kts 109°
2026-05-06 21:24 28.22839 -80.61047 12 ft 8 kts 110°
2026-05-06 21:24 28.22820 -80.60981 12 ft 11 kts 91°
2026-05-06 21:24 28.22875 -80.60933 13 ft 13 kts 21°
2026-05-06 21:24 28.22980 -80.60890 13 ft 17 kts 19°
2026-05-06 21:25 28.23072 -80.60853 11 ft 18 kts 20°
2026-05-06 21:25 28.23195 -80.60801 11 ft 19 kts 20°
2026-05-06 21:25 28.23317 -80.60752 10 ft 19 kts 19°
2026-05-06 21:25 28.23443 -80.60701 8 ft 19 kts 21°
2026-05-06 21:26 28.23565 -80.60650 10 ft 18 kts 19°
2026-05-06 21:26 28.23674 -80.60607 12 ft 16 kts 19°
2026-05-06 21:26 28.23772 -80.60566 14 ft 14 kts 21°
2026-05-06 21:26 28.23856 -80.60530 17 ft 11 kts 19°
2026-05-06 21:27 28.23928 -80.60502 18 ft 13 kts 19°
2026-05-06 21:27 28.24016 -80.60468 16 ft 14 kts 20°
2026-05-06 21:27 28.24113 -80.60424 15 ft 15 kts 20°
2026-05-06 21:27 28.24213 -80.60391 15 ft 15 kts 358°
2026-05-06 21:28 28.24314 -80.60403 15 ft 14 kts 353°
2026-05-06 21:28 28.24415 -80.60416 13 ft 16 kts 353°
2026-05-06 21:28 28.24532 -80.60429 9 ft 18 kts 355°
2026-05-06 21:28 28.24654 -80.60451 10 ft 17 kts 342°
2026-05-06 21:29 28.24720 -80.60509 11 ft 11 kts 294°
2026-05-06 21:29 28.24760 -80.60593 10 ft 14 kts 298°
2026-05-06 21:29 28.24777 -80.60670 10 ft 9 kts 241°
2026-05-06 21:29 28.24744 -80.60718 9 ft 8 kts 284°
2026-05-06 21:30 28.24771 -80.60792 10 ft 12 kts 292°
2026-05-06 21:30 28.24798 -80.60869 12 ft 8 kts 291°
2026-05-06 21:30 28.24816 -80.60902 13 ft 3 kts 343°
2026-05-06 21:30 28.24829 -80.60892 13 ft 2 kts 33°
2026-05-06 21:31 28.24831 -80.60891 13 ft 0 kts 32°